It's Friday,
December 6th, 2019
User not logged in
[Run Race Header Image][Run Race logo]
  
Race webcasting is attempted by race directors and their support staff. Please remember that conditions under which they're working may make it difficult to post timely webcast updates... your interest and patience is appreciated!
Race Information
Race Name:Kettle 100 Endurance Runs - 2018
Location:LaGrange
State:Wisconsin, United States
 button: button: Webcast Autoplay
Event Information
Name of Event:Kettle 100m solo
Distance:100 Miles
Started Date/Time:Saturday June 2nd, 2018, 6:00:46.13 am
button: Assign Numbers  
Checkpoint:Bluff Road Outbound 1
Distance:6 Miles
Gun Start Time:Saturday June 2nd, 2018 6:00:46.13 am
Calculate Chip Start Time:< not set >
Y or N... Calculate splits based upon participant chip start time?
Allow Early Chip Start Time:< not set >
Y or N... Allow participants a chip start time prior to gun start?
Pos Race
Number
NameAgeSexTimePace 
166David Hansen32M44:18.17:23.0Sat Jun 2nd, 2018 6:45:04 am
224Kevin Cannaday39M44:21.77:23.6Sat Jun 2nd, 2018 6:45:07 am
3168bradley revenis32M44:29.67:24.9Sat Jun 2nd, 2018 6:45:15 am
4102Nicholas Kopp26M44:43.67:27.3Sat Jun 2nd, 2018 6:45:29 am
5206Luigi Terzini44M46:12.97:42.2Sat Jun 2nd, 2018 6:46:59 am
6170Michael Robbert42M47:14.77:52.4Sat Jun 2nd, 2018 6:48:00 am
781Kelly Hutchins47M47:58.17:59.7Sat Jun 2nd, 2018 6:48:44 am
8193Henry Southgate37M48:23.78:04.0Sat Jun 2nd, 2018 6:49:09 am
9128Christopher Mahoney35M49:05.78:11.0Sat Jun 2nd, 2018 6:49:51 am
1038David Darby52M51:27.58:34.6Sat Jun 2nd, 2018 6:52:13 am
11152Dan Pautz32M51:28.88:34.8Sat Jun 2nd, 2018 6:52:14 am
12140Christine Murphy31F52:06.98:41.2Sat Jun 2nd, 2018 6:52:53 am
1393Wil Kidnew30M52:49.08:48.2Sat Jun 2nd, 2018 6:53:35 am
14196Jennifer St.Amand43F53:00.58:50.1Sat Jun 2nd, 2018 6:53:46 am
1564Kent Green31M53:10.28:51.7Sat Jun 2nd, 2018 6:53:56 am
1694justin kirk42M54:22.19:03.7Sat Jun 2nd, 2018 6:55:08 am
17262Richard Abbott52M55:09.39:11.6Sat Jun 2nd, 2018 6:55:55 am
1842Jeffrey DeVries39M55:13.79:12.3Sat Jun 2nd, 2018 6:55:59 am
19169Kevin Riessland42M55:14.89:12.5Sat Jun 2nd, 2018 6:56:00 am
20215Thomas Wetter54M55:18.99:13.2Sat Jun 2nd, 2018 6:56:05 am
21249ryan Norton44M55:37.39:16.2Sat Jun 2nd, 2018 6:56:23 am
2227Clint Cherepa39M55:39.79:16.6Sat Jun 2nd, 2018 6:56:25 am
23214Annie Weiss33F55:55.39:19.2Sat Jun 2nd, 2018 6:56:41 am
24259Jason Wesolowski32M55:56.79:19.4Sat Jun 2nd, 2018 6:56:42 am
2535David Curtin43M56:00.29:20.0Sat Jun 2nd, 2018 6:56:46 am
2649David Eckburg46M56:13.59:22.2Sat Jun 2nd, 2018 6:56:59 am
27181Adam Schwartz-Lowe45M56:51.49:28.6Sat Jun 2nd, 2018 6:57:37 am
28161Lucas Prasch42M56:57.29:29.5Sat Jun 2nd, 2018 6:57:43 am
29176Steven Schmid47M57:16.99:32.8Sat Jun 2nd, 2018 6:58:03 am
3026Vincent Charbonneau47M57:25.39:34.2Sat Jun 2nd, 2018 6:58:11 am
31186Geoff Sheppard51M57:32.49:35.4Sat Jun 2nd, 2018 6:58:18 am
3228Anthony Ciske40M57:40.89:36.8Sat Jun 2nd, 2018 6:58:26 am
33131Stacey Marion29F57:46.69:37.8Sat Jun 2nd, 2018 6:58:32 am
3495Ty Kleiner46M58:02.39:40.4Sat Jun 2nd, 2018 6:58:48 am
35254Turner Smith27M58:03.19:40.5Sat Jun 2nd, 2018 6:58:49 am
36127James Luebke35M58:04.29:40.7Sat Jun 2nd, 2018 6:58:50 am
37185Even Semrud29M58:06.69:41.1Sat Jun 2nd, 2018 6:58:52 am
38146Brendan O'Ryan38M58:27.89:44.6Sat Jun 2nd, 2018 6:59:13 am
39231Todd Brown49M58:46.49:47.7Sat Jun 2nd, 2018 6:59:32 am
40228Adam Benkers43M58:47.09:47.8Sat Jun 2nd, 2018 6:59:33 am
41239Jeremy Harrison40M58:47.39:47.9Sat Jun 2nd, 2018 6:59:33 am
421Timothy Adamski29M58:59.79:50.0Sat Jun 2nd, 2018 6:59:45 am
4351Martin Ertz33M59:13.69:52.3Sat Jun 2nd, 2018 6:59:59 am
44230Curt brey38M59:14.79:52.4Sat Jun 2nd, 2018 7:00:00 am
4574Lucas Henson33M59:21.69:53.6Sat Jun 2nd, 2018 7:00:07 am
46229brad birkel40M59:31.59:55.2Sat Jun 2nd, 2018 7:00:17 am
47218Jack Wiley45M59:32.19:55.3Sat Jun 2nd, 2018 7:00:18 am
4823Bryan Campbell45M59:41.59:56.9Sat Jun 2nd, 2018 7:00:27 am
4963Matt Granstrom39M1:00:45.210:07.5Sat Jun 2nd, 2018 7:01:31 am
50132Craig Mason42M1:02:03.910:20.7Sat Jun 2nd, 2018 7:02:50 am
51103Michael Krattley54M1:02:17.310:22.9Sat Jun 2nd, 2018 7:03:03 am
52210Oliver Truog45M1:02:19.110:23.2Sat Jun 2nd, 2018 7:03:05 am
53235David Dobrindt47M1:02:19.310:23.2Sat Jun 2nd, 2018 7:03:05 am
54245Jeremy Knaus44M1:02:31.010:25.2Sat Jun 2nd, 2018 7:03:17 am
55177Jordan Schmidt23M1:02:31.210:25.2Sat Jun 2nd, 2018 7:03:17 am
56200steven stricker54M1:02:35.510:25.9Sat Jun 2nd, 2018 7:03:21 am
578Matt Bartz43M1:02:40.910:26.8Sat Jun 2nd, 2018 7:03:27 am
5811Brad Baumgartner48M1:02:41.110:26.9Sat Jun 2nd, 2018 7:03:27 am
5918JP Bordeleau43M1:02:45.510:27.6Sat Jun 2nd, 2018 7:03:31 am
6056Jonathon Foster27M1:02:45.710:27.6Sat Jun 2nd, 2018 7:03:31 am
61153Brian Pfister45M1:02:45.910:27.6Sat Jun 2nd, 2018 7:03:32 am
62246Matt McCarty38M1:03:10.310:31.7Sat Jun 2nd, 2018 7:03:56 am
6332Brian Corgard36M1:03:11.910:32.0Sat Jun 2nd, 2018 7:03:58 am
64223Nate Ziemski40M1:03:14.310:32.4Sat Jun 2nd, 2018 7:04:00 am
6521Kent Buhler52M1:03:19.810:33.3Sat Jun 2nd, 2018 7:04:05 am
66211Raphael Villavicencio51M1:03:25.010:34.2Sat Jun 2nd, 2018 7:04:11 am
67182Jared Scray39M1:03:33.310:35.5Sat Jun 2nd, 2018 7:04:19 am
68255Samuel Stelsel33M1:03:34.410:35.7Sat Jun 2nd, 2018 7:04:20 am
69105Predrag Krkic63M1:03:34.810:35.8Sat Jun 2nd, 2018 7:04:20 am
70120David Lenahan45M1:03:39.810:36.6Sat Jun 2nd, 2018 7:04:25 am
71135Wesley Meier33M1:03:40.610:36.8Sat Jun 2nd, 2018 7:04:26 am
7220Jason Brozek38M1:03:44.710:37.5Sat Jun 2nd, 2018 7:04:30 am
73187Monica Showers38F1:03:47.710:38.0Sat Jun 2nd, 2018 7:04:33 am
74162Meghan Prohaska29F1:03:52.710:38.8Sat Jun 2nd, 2018 7:04:38 am
75166Marty Reed47M1:03:53.510:38.9Sat Jun 2nd, 2018 7:04:39 am
7614Adam Bittner44M1:03:55.210:39.2Sat Jun 2nd, 2018 7:04:41 am
775Michael Asmus37M1:04:13.210:42.2Sat Jun 2nd, 2018 7:04:59 am
78107Dan Kummer43M1:04:14.510:42.4Sat Jun 2nd, 2018 7:05:00 am
7925Robert Carter46M1:04:19.510:43.2Sat Jun 2nd, 2018 7:05:05 am
8033Jamie Crouse38F1:04:20.510:43.4Sat Jun 2nd, 2018 7:05:06 am
8122Rachel Burke33F1:04:24.310:44.1Sat Jun 2nd, 2018 7:05:10 am
82202dewaynne tackett55M1:04:29.110:44.9Sat Jun 2nd, 2018 7:05:15 am
83175Joe Schafer44M1:04:36.710:46.1Sat Jun 2nd, 2018 7:05:22 am
8462Nicolas Gramstad34M1:04:37.110:46.2Sat Jun 2nd, 2018 7:05:23 am
8550Mike Elsbury34M1:04:40.110:46.7Sat Jun 2nd, 2018 7:05:26 am
8631Joel Coon41M1:04:40.610:46.8Sat Jun 2nd, 2018 7:05:26 am
8780Ellen Humberston25F1:04:50.810:48.5Sat Jun 2nd, 2018 7:05:36 am
88114Josh Larsen44M1:04:51.310:48.5Sat Jun 2nd, 2018 7:05:37 am
89183David Secord32M1:04:56.110:49.3Sat Jun 2nd, 2018 7:05:42 am
90240Benjamin Iles31M1:04:56.510:49.4Sat Jun 2nd, 2018 7:05:42 am
9139jacob daul37M1:05:00.210:50.0Sat Jun 2nd, 2018 7:05:46 am
9240Christopher Deck37M1:05:03.810:50.6Sat Jun 2nd, 2018 7:05:49 am
9348Craig Duhn42M1:05:23.910:54.0Sat Jun 2nd, 2018 7:06:10 am
9498Jenna Koenigshofer36F1:05:26.710:54.5Sat Jun 2nd, 2018 7:06:12 am
9572Justin Heller36M1:05:34.210:55.7Sat Jun 2nd, 2018 7:06:20 am
96217BJ Wiedman46M1:05:36.610:56.1Sat Jun 2nd, 2018 7:06:22 am
97115Jeff Laughead41M1:05:40.810:56.8Sat Jun 2nd, 2018 7:06:26 am
98219David Witko60M1:05:57.310:59.6Sat Jun 2nd, 2018 7:06:43 am
9943Stacy Dittmer40F1:06:02.211:00.4Sat Jun 2nd, 2018 7:06:48 am
100130Jennifer Majewski34F1:06:05.511:00.9Sat Jun 2nd, 2018 7:06:51 am
101100Irene Kok47F1:06:07.211:01.2Sat Jun 2nd, 2018 7:06:53 am
102232Kevin Clark27M1:06:19.911:03.3Sat Jun 2nd, 2018 7:07:06 am
103205John W. Taylor56M1:06:23.211:03.9Sat Jun 2nd, 2018 7:07:09 am
104197Joe Starr48M1:06:23.611:03.9Sat Jun 2nd, 2018 7:07:09 am
10591Brandon Karl42M1:06:47.511:07.9Sat Jun 2nd, 2018 7:07:33 am
106260Chad Wooderson43M1:07:07.511:11.3Sat Jun 2nd, 2018 7:07:53 am
107198Cory Stipp41M1:07:07.811:11.3Sat Jun 2nd, 2018 7:07:53 am
108247Jason Morris41M1:07:12.311:12.0Sat Jun 2nd, 2018 7:07:58 am
109189Dan Sievert27M1:07:12.911:12.1Sat Jun 2nd, 2018 7:07:59 am
110248QuynhAnh Nguyen39F1:07:18.611:13.1Sat Jun 2nd, 2018 7:08:04 am
111109Brian Kutz31M1:07:19.311:13.2Sat Jun 2nd, 2018 7:08:05 am
11246Jim Doyle48M1:07:20.311:13.4Sat Jun 2nd, 2018 7:08:06 am
113237Douglas Franklin37M1:07:24.811:14.1Sat Jun 2nd, 2018 7:08:10 am
114167Gregory Renden40M1:07:35.911:16.0Sat Jun 2nd, 2018 7:08:22 am
115121Lori Leonard56F1:07:40.111:16.7Sat Jun 2nd, 2018 7:08:26 am
116154Josh Phillips37M1:08:00.111:20.0Sat Jun 2nd, 2018 7:08:46 am
117134Ian McMeeking22M1:08:02.711:20.5Sat Jun 2nd, 2018 7:08:48 am
118111John Lai44M1:08:17.911:23.0Sat Jun 2nd, 2018 7:09:03 am
119243Adele Jordan35F1:08:19.911:23.3Sat Jun 2nd, 2018 7:09:05 am
12079Justin Hudalla41M1:08:22.611:23.8Sat Jun 2nd, 2018 7:09:08 am
12199Lisa Kohoutek34F1:08:23.311:23.9Sat Jun 2nd, 2018 7:09:09 am
122242Scott Jacaway60M1:08:27.211:24.5Sat Jun 2nd, 2018 7:09:13 am
12359Emily Goodwin31F1:08:29.811:25.0Sat Jun 2nd, 2018 7:09:15 am
124209Barry Thrune42M1:08:52.211:28.7Sat Jun 2nd, 2018 7:09:38 am
125163John Psuik50M1:08:54.211:29.0Sat Jun 2nd, 2018 7:09:40 am
126149Greg Opgenorth37M1:09:03.511:30.6Sat Jun 2nd, 2018 7:09:49 am
127236Darin Dunham49M1:09:04.011:30.7Sat Jun 2nd, 2018 7:09:50 am
12876Richard ‘Benny’ Hickok45M1:09:05.411:30.9Sat Jun 2nd, 2018 7:09:51 am
129144kurt neumann43M1:09:10.911:31.8Sat Jun 2nd, 2018 7:09:57 am
130119Jim Lemke57M1:09:14.611:32.4Sat Jun 2nd, 2018 7:10:00 am
131191Michael Smith36M1:09:15.911:32.7Sat Jun 2nd, 2018 7:10:02 am
13255Kelly Flynn42F1:09:20.411:33.4Sat Jun 2nd, 2018 7:10:06 am
133250Parker Rios51M1:10:07.311:41.2Sat Jun 2nd, 2018 7:10:53 am
134241Rachel Ingle38F1:10:07.411:41.2Sat Jun 2nd, 2018 7:10:53 am
135251Daniel Robinson44M1:10:23.911:44.0Sat Jun 2nd, 2018 7:11:10 am
136226Jim Arnold53M1:10:24.011:44.0Sat Jun 2nd, 2018 7:11:10 am
137158Richard Plezia59M1:10:27.311:44.5Sat Jun 2nd, 2018 7:11:13 am
138216Andrew Wetterer35M1:10:30.111:45.0Sat Jun 2nd, 2018 7:11:16 am
13936Katie Daman37F1:10:31.211:45.2Sat Jun 2nd, 2018 7:11:17 am
140164Sriram Raghavulu48M1:10:31.911:45.3Sat Jun 2nd, 2018 7:11:18 am
141256Johnnie Stevens29M1:10:41.211:46.9Sat Jun 2nd, 2018 7:11:27 am
142126Seth Lucas36M1:10:53.611:48.9Sat Jun 2nd, 2018 7:11:39 am
143213Ken Weiblen45M1:10:54.011:49.0Sat Jun 2nd, 2018 7:11:40 am
14496Mike Klimkosky54M1:11:01.711:50.3Sat Jun 2nd, 2018 7:11:47 am
145136Annette Mensonides47F1:11:05.911:51.0Sat Jun 2nd, 2018 7:11:52 am
14667Nick Hansen40M1:11:23.011:53.8Sat Jun 2nd, 2018 7:12:09 am
1477Angela Barbera57F1:11:34.911:55.8Sat Jun 2nd, 2018 7:12:21 am
148199Stephen Strauss63M1:11:35.711:55.9Sat Jun 2nd, 2018 7:12:21 am
149171Diane Romero-Lopez47F1:11:36.011:56.0Sat Jun 2nd, 2018 7:12:22 am
15065Andrew Hahn34M1:11:39.311:56.6Sat Jun 2nd, 2018 7:12:25 am
151118John Leighton57M1:11:41.611:56.9Sat Jun 2nd, 2018 7:12:27 am
152224Tammy Zyduck53F1:11:55.111:59.2Sat Jun 2nd, 2018 7:12:41 am
153157Jeremy Platson43M1:12:10.512:01.8Sat Jun 2nd, 2018 7:12:56 am
154155Vincent Pilarski31M1:12:23.112:03.9Sat Jun 2nd, 2018 7:13:09 am
155201spencer swearingen40M1:12:32.812:05.5Sat Jun 2nd, 2018 7:13:18 am
156179Ann Scholl48F1:12:41.012:06.8Sat Jun 2nd, 2018 7:13:27 am
157257Philippe Thenot45M1:12:41.512:06.9Sat Jun 2nd, 2018 7:13:27 am
158194Rick Sperko47M1:12:49.212:08.2Sat Jun 2nd, 2018 7:13:35 am
159178Trudi Schoening39F1:12:51.712:08.6Sat Jun 2nd, 2018 7:13:37 am
1603Michael Anderson39M1:12:52.512:08.8Sat Jun 2nd, 2018 7:13:38 am
161148William Olson29M1:13:12.912:12.2Sat Jun 2nd, 2018 7:13:59 am
16287ERICK KAISER45M1:13:21.012:13.5Sat Jun 2nd, 2018 7:14:07 am
163145Steven Nguyen28M1:13:21.712:13.6Sat Jun 2nd, 2018 7:14:07 am
16416Brauny Bogantes43M1:13:25.012:14.2Sat Jun 2nd, 2018 7:14:11 am
16573Tammy Hellings37F1:13:34.712:15.8Sat Jun 2nd, 2018 7:14:20 am
166227Sarah Bailey46F1:13:37.112:16.2Sat Jun 2nd, 2018 7:14:23 am
16747Lisa Dretske32F1:13:37.312:16.2Sat Jun 2nd, 2018 7:14:23 am
16869Greg Hartsfield43M1:13:40.712:16.8Sat Jun 2nd, 2018 7:14:26 am
16961Brad Gorski38M1:13:42.412:17.1Sat Jun 2nd, 2018 7:14:28 am
170172Tom Samuel46M1:13:43.812:17.3Sat Jun 2nd, 2018 7:14:29 am
171208Brian Thrasher55M1:13:44.412:17.4Sat Jun 2nd, 2018 7:14:30 am
17253Bill Fairfield62M1:13:46.612:17.8Sat Jun 2nd, 2018 7:14:32 am
173151Jason Patera42M1:13:47.812:18.0Sat Jun 2nd, 2018 7:14:33 am
17470Shannon Haus47M1:14:01.212:20.2Sat Jun 2nd, 2018 7:14:47 am
1752Jay Anderson45M1:14:06.712:21.1Sat Jun 2nd, 2018 7:14:52 am

Event Information
Name of Event:Kettle 100k solo
Distance:100 Kilometers
Started Date/Time:Saturday June 2nd, 2018, 6:00:46.13 am
button: Assign Numbers 

Event Information
Name of Event:Kettle 100 relay
Distance:100 Miles
Started Date/Time:Saturday June 2nd, 2018, 6:00:46.13 am
button: Assign Numbers 

Event Information
Name of Event:Kettle 50 km solo
Distance:50 Kilometers
Started Date/Time:Saturday June 2nd, 2018, 1:00:47.10 pm
button: Assign Numbers 

Event Information
Name of Event:Kettle 38 night fun run
Distance:38 Miles
Started Date/Time:Saturday June 2nd, 2018, 6:00:00.00 pm
button: Assign Numbers 
©2004-2019 : All rights reserved
Terms and Conditions